Location: Bernadets
(43.3537°N, 0.3167°E)
Time: 03:58:17
(UTC+00:00)

Cosmos 2322 Rocket - Pass Details

Date: 24 October 2021
Orbit: 832 x 851 km, 71.0° (Epoch: 27 November)

Event Time Altitude Azimuth Distance (km) Brightness Sun altitude
Rises 19:47:11 0° 245° (WSW) 3,369 6.0 -30.7°
Reaches altitude 10° 19:50:11 10° 261° (W) 2,440 5.3 -31.2°
Maximum altitude 19:54:26 22° 310° (NW) 1,763 4.4 -32.0°
Drops below altitude 10° 19:58:42 10° 0° (N) 2,455 4.7 -32.7°
Enters shadow 20:00:24 - 10° (N) 2,958 5.1 -33.0°
